This is the latest recevied weather packets stored in our database for station/object KG7MRB. If no packets are shown the sender has not sent any weather packets the latest 10 day(s).
| Time | Temp. | Humidity | Pressure | Rain* | Wind** | Luminosity | Snow |
|---|---|---|---|---|---|---|---|
| 1777883715 | 10° C | 94% | 1028.4 hPa | 0 mm | - | 0 W/m² | - |
| 1777883410 | 10° C | 93% | 1028.5 hPa | 0 mm | - | 0 W/m² | - |
| 1777883107 | 10° C | 93% | 1028.6 hPa | 0 mm | - | 0 W/m² | - |
| 1777882803 | 10.56° C | 93% | 1028.6 hPa | 0 mm | - | 0 W/m² | - |
| 1777882501 | 10.56° C | 92% | 1028.4 hPa | 0 mm | - | 0 W/m² | - |
| 1777882195 | 10.56° C | 92% | 1028.2 hPa | 0 mm | - | 0 W/m² | - |
| 1777881893 | 10.56° C | 92% | 1028.7 hPa | 0 mm | - | 0 W/m² | - |
| 1777881589 | 10.56° C | 91% | 1028.8 hPa | 0 mm | - | 0 W/m² | - |
| 1777881286 | 10.56° C | 92% | 1028.5 hPa | 0 mm | - | 0 W/m² | - |
| 1777880983 | 10.56° C | 92% | 1028.6 hPa | 0 mm | - | 0 W/m² | - |
| 1777880681 | 11.11° C | 91% | 1028.5 hPa | 0 mm | - | 0 W/m² | - |
| 1777880379 | 11.11° C | 91% | 1028.4 hPa | 0 mm | - | 0 W/m² | - |
| 1777880077 | 11.11° C | 90% | 1028.4 hPa | 0 mm | - | 0 W/m² | - |
| 1777879776 | 11.11° C | 90% | 1028.4 hPa | 0 mm | - | 0 W/m² | - |
| 1777879472 | 11.11° C | 90% | 1028.5 hPa | 0 mm | - | 0 W/m² | - |
| 1777879169 | 11.67° C | 89% | 1028.4 hPa | 0 mm | - | 0 W/m² | - |
| 1777878866 | 11.67° C | 89% | 1028.4 hPa | 0 mm | - | 0 W/m² | - |
| 1777878564 | 11.67° C | 89% | 1028.2 hPa | 0 mm | - | 0 W/m² | - |
| 1777878260 | 11.67° C | 88% | 1028.3 hPa | 0 mm | - | 0 W/m² | - |
| 1777877956 | 12.22° C | 87% | 1028.3 hPa | 0 mm | - | 0 W/m² | - |
| 1777877653 | 12.22° C | 86% | 1027.9 hPa | 0 mm | - | 0 W/m² | - |
| 1777877350 | 12.22° C | 86% | 1027.9 hPa | 0 mm | - | 0 W/m² | - |
| 1777877048 | 12.78° C | 86% | 1028.4 hPa | 0 mm | - | 0 W/m² | - |
| 1777876744 | 12.22° C | 86% | 1028.3 hPa | 0 mm | - | 0 W/m² | - |
| 1777876442 | 12.78° C | 85% | 1028.2 hPa | 0 mm | - | 0 W/m² | - |
* Rain latest hour (hover to see other rain measurements)
** Current wind speed in m/s (hover to see current wind gust speed)